Total_Precipitation_Accumulation
1.64 1.73 1.67 1.66 1.61 1.62 1.65 1.63 1.59 1.56 1.49 1.47 1.50 1.51 1.51 1.55 1.62 1.68 1.59 1.63 1.62 1.65 1.66 1.71 1.70 1.80 1.82 1.75 1.86 1.91 1.98 2.09 1.89 1.54 1.57 1.69 1.70 1.50 1.45 1.40 1.39 1.40 1.36
1.46 1.44 1.44 1.50 1.50 1.45 1.42 1.48 1.53 1.45 1.38 1.44 1.48 1.45 1.37 1.45 1.60 1.59 1.52 1.61 1.63 1.59 1.68 1.83 1.74 1.80 1.86 1.92 2.08 1.98 2.03 2.29 2.24 1.94 1.89 1.98 1.87 1.74 1.68 1.57 1.36 1.29 1.29
1.21 1.20 1.23 1.27 1.28 1.28 1.29 1.36 1.44 1.47 1.46 1.43 1.40 1.33 1.33 1.40 1.47 1.48 1.56 1.66 1.70 1.73 1.81 1.90 1.93 2.10 2.01 2.05 2.10 2.06 2.11 2.35 2.55 2.33 2.15 2.24 2.19 1.96 1.90 1.69 1.54 1.55 1.35
1.12 1.19 1.31 1.36 1.38 1.40 1.39 1.46 1.55 1.61 1.56 1.56 1.54 1.57 1.58 1.53 1.53 1.59 1.67 1.74 1.76 1.82 1.97 2.00 2.00 2.07 2.13 2.26 2.26 2.35 2.50 2.68 2.82 2.68 2.54 2.61 2.62 2.46 2.24 1.89 1.78 1.67 1.54
1.28 1.38 1.56 1.71 1.71 1.61 1.61 1.71 1.79 1.83 1.77 1.89 1.88 1.86 1.90 1.84 1.66 1.77 1.84 1.81 1.92 1.86 1.94 1.98 1.94 2.04 2.10 2.21 2.17 2.36 2.67 2.85 2.98 3.00 2.94 3.08 3.02 2.87 2.53 2.16 2.07 1.95 1.79
1.12 1.26 1.46 1.66 1.76 1.77 1.83 1.94 1.95 1.92 2.02 2.09 2.02 2.03 2.03 1.80 1.91 1.96 1.94 2.00 2.05 2.01 2.02 2.03 1.99 1.97 1.89 1.93 2.01 2.14 2.33 2.53 2.76 2.97 3.05 3.13 3.15 3.04 2.84 2.57 2.23 1.98 1.79
1.33 1.51 1.63 1.79 1.92 1.94 1.90 1.94 1.98 1.98 1.97 2.03 2.05 2.07 1.97 1.92 1.93 1.79 1.80 1.82 1.93 1.99 2.02 2.02 1.85 1.72 1.75 1.67 1.81 1.88 1.87 1.93 2.08 2.37 2.58 2.63 2.86 2.98 2.88 2.52 2.21 1.94 1.72
1.30 1.46 1.59 1.78 1.90 1.97 2.06 2.11 2.18 2.23 2.24 2.24 2.16 2.13 2.10 1.99 1.88 1.73 1.78 1.66 1.71 1.76 1.80 1.82 1.81 1.71 1.70 1.79 1.78 1.66 1.51 1.50 1.62 1.65 1.75 2.00 2.30 2.63 2.73 2.59 2.53 2.24 1.92
1.52 1.68 1.82 1.91 2.05 2.11 2.16 2.28 2.38 2.45 2.40 2.37 2.34 2.36 2.37 2.36 2.27 1.98 1.87 1.71 1.75 1.75 1.74 1.74 1.72 1.59 1.71 1.65 1.60 1.60 1.51 1.43 1.45 1.50 1.55 1.75 2.04 2.29 2.49 2.52 2.43 2.34 2.06
1.91 1.96 2.03 2.15 2.22 2.20 2.21 2.28 2.31 2.34 2.34 2.33 2.27 2.32 2.30 2.32 2.39 2.09 1.86 1.65 1.69 1.72 1.80 1.81 1.82 1.67 1.73 1.66 1.62 1.65 1.56 1.48 1.48 1.47 1.49 1.55 1.62 1.91 2.21 2.22 2.20 2.25 2.10
1.92 1.99 2.09 2.19 2.38 2.47 2.48 2.35 2.20 2.19 2.24 2.33 2.32 2.36 2.34 2.28 2.22 1.88 1.74 1.67 1.73 1.77 1.71 1.67 1.71 1.72 1.55 1.45 1.40 1.40 1.47 1.50 1.51 1.45 1.40 1.40 1.47 1.59 1.79 1.89 1.96 1.97 1.91
1.88 1.99 2.10 2.15 2.16 2.20 2.42 2.47 2.38 2.28 2.20 2.23 2.30 2.26 2.18 2.11 1.98 1.68 1.42 1.40 1.49 1.53 1.53 1.51 1.51 1.48 1.29 1.16 1.03 1.02 1.09 1.08 1.15 1.25 1.25 1.22 1.26 1.33 1.49 1.75 1.93 1.95 1.83
1.93 2.09 2.23 2.25 2.29 2.26 2.26 2.32 2.28 2.20 2.06 1.90 1.95 2.00 2.01 2.01 1.89 1.60 1.32 1.21 1.22 1.18 1.27 1.48 1.48 1.35 1.23 1.14 1.08 1.00 0.92 0.85 0.93 1.03 0.99 1.00 1.06 1.16 1.33 1.64 1.90 2.09 1.99
2.05 2.11 2.15 2.17 2.15 2.21 2.30 2.22 2.15 2.14 2.07 1.89 1.90 1.95 1.99 1.99 1.86 1.64 1.48 1.37 1.32 1.25 1.28 1.43 1.49 1.46 1.37 1.28 1.18 1.02 0.85 0.84 0.86 0.91 0.97 1.00 1.10 1.19 1.29 1.39 1.65 1.87 1.97
1.88 1.83 1.89 1.97 1.97 1.95 2.09 2.14 1.95 1.87 1.94 1.89 1.96 2.14 2.10 1.92 1.76 1.60 1.42 1.39 1.38 1.42 1.43 1.52 1.63 1.64 1.60 1.48 1.32 1.17 1.06 1.01 0.98 0.96 1.06 1.09 1.11 1.14 1.15 1.20 1.39 1.56 1.57
1.91 1.87 1.84 1.86 1.89 1.89 1.88 1.91 1.87 1.66 1.64 1.58 1.64 1.73 1.78 1.69 1.59 1.51 1.41 1.36 1.29 1.29 1.30 1.44 1.70 1.77 1.77 1.74 1.62 1.43 1.28 1.18 1.13 1.12 1.13 1.13 1.13 1.17 1.21 1.25 1.32 1.45 1.46
2.01 2.09 2.01 1.82 1.72 1.71 1.68 1.64 1.65 1.56 1.36 1.29 1.29 1.26 1.22 1.23 1.25 1.33 1.37 1.30 1.22 1.12 1.06 1.24 1.53 1.72 1.80 1.82 1.74 1.53 1.34 1.30 1.32 1.27 1.23 1.20 1.20 1.23 1.31 1.34 1.36 1.44 1.50
1.70 1.77 1.73 1.63 1.56 1.50 1.47 1.42 1.37 1.45 1.43 1.30 1.22 1.15 1.10 1.07 1.11 1.29 1.41 1.25 1.13 1.08 1.02 1.16 1.40 1.64 1.72 1.76 1.73 1.64 1.50 1.45 1.44 1.40 1.36 1.31 1.30 1.33 1.32 1.33 1.36 1.39 1.43
1.51 1.54 1.49 1.51 1.55 1.56 1.60 1.56 1.46 1.45 1.53 1.54 1.43 1.20 1.14 1.12 1.16 1.40 1.50 1.19 1.10 1.16 1.18 1.22 1.32 1.52 1.67 1.74 1.75 1.72 1.66 1.60 1.57 1.58 1.52 1.47 1.44 1.48 1.42 1.34 1.35 1.44 1.47
1.43 1.56 1.54 1.45 1.46 1.58 1.65 1.60 1.61 1.70 1.70 1.79 1.76 1.47 1.27 1.18 1.15 1.40 1.52 1.35 1.31 1.32 1.29 1.29 1.33 1.46 1.62 1.75 1.78 1.74 1.78 1.74 1.72 1.68 1.63 1.58 1.53 1.54 1.52 1.48 1.49 1.52 1.45
1.36 1.42 1.48 1.44 1.44 1.51 1.58 1.60 1.60 1.65 1.75 1.79 1.75 1.54 1.38 1.23 1.32 1.55 1.72 1.60 1.49 1.48 1.46 1.42 1.44 1.52 1.60 1.69 1.68 1.63 1.65 1.72 1.70 1.66 1.61 1.58 1.54 1.50 1.50 1.54 1.54 1.58 1.55
1.32 1.35 1.38 1.38 1.41 1.42 1.44 1.55 1.66 1.73 1.76 1.81 1.70 1.54 1.50 1.40 1.46 1.61 1.67 1.61 1.53 1.49 1.45 1.44 1.50 1.59 1.63 1.63 1.62 1.61 1.61 1.64 1.64 1.63 1.64 1.63 1.61 1.58 1.59 1.58 1.58 1.61 1.63
1.16 1.20 1.27 1.29 1.29 1.27 1.26 1.29 1.35 1.46 1.58 1.63 1.54 1.48 1.47 1.51 1.49 1.53 1.61 1.59 1.52 1.48 1.41 1.41 1.44 1.44 1.44 1.44 1.40 1.43 1.48 1.48 1.49 1.53 1.63 1.67 1.68 1.65 1.62 1.57 1.54 1.58 1.63
0.84 0.86 0.87 0.92 0.95 1.02 1.07 1.09 1.09 1.14 1.27 1.34 1.27 1.31 1.34 1.36 1.34 1.37 1.42 1.44 1.44 1.43 1.40 1.35 1.32 1.30 1.26 1.24 1.25 1.26 1.25 1.27 1.29 1.35 1.43 1.53 1.58 1.62 1.62 1.59 1.60 1.61 1.66
0.78 0.78 0.77 0.80 0.82 0.86 0.92 0.97 1.04 1.11 1.15 1.16 1.18 1.20 1.23 1.22 1.24 1.29 1.27 1.25 1.25 1.24 1.18 1.18 1.20 1.21 1.22 1.15 1.08 1.04 1.10 1.10 1.10 1.17 1.21 1.32 1.40 1.48 1.53 1.54 1.59 1.65 1.66
0.74 0.80 0.81 0.84 0.87 0.89 0.94 1.00 1.04 1.02 1.02 1.04 1.07 1.12 1.18 1.17 1.14 1.14 1.09 1.07 1.10 1.09 1.06 1.05 1.06 1.09 1.09 1.05 1.02 1.02 0.99 0.91 0.94 1.07 1.08 1.15 1.28 1.35 1.40 1.45 1.44 1.52 1.57